DW1352 Weather Reports


Display with metric or nautical units.
time (UTC)temp
F
wind
direction
speed
MPH
gust
MPH
rain 1hr
in
rain 24hr
in
rain mn
in
humidity
%
barometer
mb
20260906200243 84 133 6.0 13.0 0.00 0.31 0.31 62 1014.8
20260906195239 84 149 6.0 14.0 0.00 0.31 0.31 64 1014.7
20260906192214 84 148 9.0 15.0 0.00 0.31 0.31 65 1014.6
20260906191209 84 158 8.0 16.0 0.00 0.31 0.31 61 1014.7
20260906190217 85 161 8.0 19.0 0.00 0.31 0.31 61 1014.8
20260906185246 84 177 8.0 17.0 0.00 0.31 0.31 61 1014.8
20260906184244 84 173 7.0 18.0 0.00 0.31 0.31 62 1014.8
20260906183210 85 160 11.0 18.0 0.00 0.31 0.31 59 1014.9
20260906182221 84 166 8.0 20.0 0.00 0.31 0.31 61 1014.9
20260906181231 85 174 12.0 19.0 0.00 0.31 0.31 59 1015.0
20260906180215 85 164 9.0 16.0 0.00 0.31 0.31 60 1015.0
20260906175204 84 172 8.0 18.0 0.00 0.31 0.31 61 1015.0
20260906174236 84 189 8.0 22.0 0.00 0.31 0.31 59 1014.9
20260906172223 83 180 9.0 16.0 0.00 0.31 0.31 60 1014.7
20260906171201 82 177 7.0 18.0 0.00 0.31 0.31 59 1014.8
20260906170246 81 159 9.0 19.0 0.00 0.31 0.31 60 1014.7
20260906165207 80 167 9.0 19.0 0.00 0.31 0.31 58 1014.6
20260906164240 79 160 10.0 17.0 0.00 0.31 0.31 61 1014.5
20260906163226 77 166 9.0 17.0 0.00 0.31 0.31 61 1014.3
20260906162233 76 187 8.0 17.0 0.00 0.31 0.31 63 1014.5
20260906161222 74 177 10.0 17.0 0.00 0.31 0.31 62 1014.5
20260906155244 73 217 1.0 6.0 0.00 0.31 0.31 72 1014.5
20260906154239 73 186 3.0 17.0 0.00 0.31 0.31 69 1014.5
20260906153240 72 155 9.0 17.0 0.00 0.31 0.31 67 1014.1
20260906152243 71 158 9.0 22.0 0.00 0.31 0.31 69 1014.2
20260906151213 70 160 13.0 30.0 0.00 0.31 0.31 72 1013.4
20260906145237 67 161 12.0 31.0 0.02 0.31 0.31 82 1014.4
20260906144213 66 166 8.0 25.0 0.05 0.31 0.31 90 1014.6
20260906143232 66 170 11.0 20.0 0.08 0.31 0.31 92 1015.2
20260906141219 66 163 12.0 17.0 0.13 0.31 0.31 95 1016.2
20260906140234 66 158 10.0 16.0 0.13 0.30 0.30 96 1016.8
20260906135242 65 164 7.0 12.0 0.14 0.29 0.29 95 1017.4
20260906133245 66 265 4.0 18.0 0.11 0.23 0.23 95 1018.2
20260906132242 66 266 8.0 15.0 0.08 0.19 0.19 95 1017.5
20260906131237 66 285 8.0 20.0 0.09 0.18 0.18 95 1016.9
20260906130234 66 279 8.0 15.0 0.10 0.17 0.17 95 1017.0
20260906124213 66 282 2.0 10.0 0.11 0.13 0.13 95 1017.8
20260906123239 66 302 6.0 10.0 0.11 0.12 0.12 95 1017.5
20260906122231 66 301 3.0 10.0 0.10 0.10 0.10 94 1017.8
20260906121222 66 318 6.0 11.0 0.09 0.09 0.09 94 1017.5
20260906120215 66 302 7.0 16.0 0.06 0.06 0.06 93 1017.3
20260906115232 66 309 8.0 14.0 0.04 0.04 0.04 92 1017.2
20260906114237 67 296 6.0 15.0 0.02 0.02 0.02 91 1017.4
20260906113244 68 308 10.0 17.0 0.01 0.01 0.01 89 1017.2
20260906112245 69 304 7.0 21.0 0.00 0.00 0.00 87 1017.3
20260906111201 70 294 8.0 19.0 0.00 0.00 0.00 85 1017.1
20260906110203 70 305 8.0 17.0 0.00 0.00 0.00 83 1016.8
20260906105227 71 313 9.0 17.0 0.00 0.00 0.00 82 1016.1
20260906104212 72 323 7.0 18.0 0.00 0.00 0.00 80 1015.9
20260906103228 72 319 7.0 19.0 0.00 0.00 0.00 78 1015.5
20260906102208 73 319 8.0 17.0 0.00 0.00 0.00 78 1015.6
20260906101241 73 335 6.0 15.0 0.00 0.00 0.00 78 1015.3
20260906095225 72 313 8.0 18.0 0.00 0.00 0.00 82 1015.4
20260906094223 72 293 4.0 14.0 0.00 0.00 0.00 84 1015.3
20260906093237 72 152 0.0 3.0 0.00 0.00 0.00 85 1014.3
20260906092222 72 152 0.0 4.0 0.00 0.00 0.00 85 1014.0
20260906091243 72 152 2.0 5.0 0.00 0.00 0.00 85 1013.9
20260906090204 72 147 3.0 4.0 0.00 0.00 0.00 86 1013.7
20260906085230 72 143 2.0 5.0 0.00 0.00 0.00 86 1013.8
20260906082217 72 121 1.0 4.0 0.00 0.00 0.00 86 1013.8
20260906081233 72 140 1.0 5.0 0.00 0.00 0.00 86 1013.6
20260906080223 72 142 2.0 6.0 0.00 0.00 0.00 87 1013.9
20260906075201 72 154 2.0 5.0 0.00 0.00 0.00 87 1014.0
20260906074214 72 162 2.0 5.0 0.00 0.00 0.00 87 1013.9
20260906072202 72 158 2.0 4.0 0.00 0.00 0.00 87 1014.1
20260906071221 73 157 1.0 4.0 0.00 0.00 0.00 87 1014.1
20260906070233 73 148 1.0 4.0 0.00 0.00 0.00 87 1014.1
20260906065227 73 148 2.0 5.0 0.00 0.00 0.00 86 1014.0
20260906064232 73 148 2.0 3.0 0.00 0.00 0.00 86 1013.7
20260906063230 74 149 2.0 3.0 0.00 0.00 0.00 85 1014.0
20260906062214 74 151 0.0 3.0 0.00 0.00 0.00 84 1013.9
20260906061212 74 151 0.0 3.0 0.00 0.00 0.00 83 1013.7
20260906060213 74 150 0.0 6.0 0.00 0.00 0.00 83 1013.9
20260906054200 75 131 2.0 5.0 0.00 0.00 0.00 84 1013.7
20260906053220 75 146 2.0 4.0 0.00 0.00 0.00 84 1013.9
20260906052235 75 152 1.0 3.0 0.00 0.00 0.00 85 1014.1
20260906050213 76 150 1.0 3.0 0.00 0.00 0.00 83 1014.3
20260906045159 76 150 0.0 2.0 0.00 0.00 0.00 82 1014.1
20260906044243 76 150 0.0 2.0 0.00 0.00 0.00 81 1014.1
20260906043203 77 150 0.0 1.0 0.00 0.00 0.00 81 1014.3
20260906042201 77 150 0.0 2.0 0.00 0.00 0.00 81 1014.2
20260906041232 77 151 1.0 4.0 0.00 0.00 0.00 81 1014.1
20260906040215 77 152 2.0 5.0 0.00 0.00 0.00 82 1014.0
20260906035212 77 150 2.0 5.0 0.00 0.00 0.00 82 1013.8
20260906034205 77 140 2.0 3.0 0.00 0.00 0.00 83 1013.9
20260906032202 78 139 1.0 3.0 0.00 0.00 0.00 83 1013.7
20260906031159 78 136 0.0 2.0 0.00 0.00 0.00 82 1013.6
20260906030207 78 135 0.0 3.0 0.00 0.00 0.00 81 1013.5
20260906025214 78 133 1.0 3.0 0.00 0.00 0.00 81 1013.4
20260906024210 79 126 2.0 4.0 0.00 0.00 0.00 81 1013.4
20260906023224 79 129 2.0 5.0 0.00 0.00 0.00 81 1013.4
20260906022200 79 131 2.0 3.0 0.00 0.00 0.00 80 1013.2
20260906021222 80 130 1.0 6.0 0.00 0.00 0.00 80 1013.0
20260906014207 81 111 0.0 0.0 0.00 0.00 0.00 78 1012.9
20260906013228 81 112 0.0 2.0 0.00 0.00 0.00 77 1012.8
20260906012221 82 113 1.0 5.0 0.00 0.00 0.00 76 1012.7
20260906011229 83 131 2.0 4.0 0.00 0.00 0.00 75 1012.6
20260906010240 83 134 0.0 3.0 0.00 0.00 0.00 73 1012.6
20260906005159 84 134 0.0 2.0 0.00 0.00 0.00 72 1012.5
20260906003219 85 130 1.0 5.0 0.00 0.00 0.00 70 1012.4
20260906002230 86 129 2.0 9.0 0.00 0.00 0.00 69 1012.4
20260906001229 86 131 2.0 5.0 0.00 0.00 0.00 67 1012.3
20260906000219 87 136 3.0 12.0 0.00 0.00 0.00 65 1012.3
20260905235236 87 125 5.0 11.0 0.00 0.00 0.00 65 1012.3
20260905234240 87 144 6.0 12.0 0.00 0.00 0.00 66 1012.3
20260905233203 87 143 5.0 11.0 0.00 0.00 0.00 65 1012.2
20260905232215 87 125 6.0 13.0 0.00 0.00 0.00 65 1012.2
20260905231231 87 137 6.0 17.0 0.00 0.00 0.00 64 1012.2
20260905230239 87 123 7.0 14.0 0.00 0.00 0.00 64 1012.2
20260905225200 87 125 7.0 14.0 0.00 0.00 0.00 64 1012.2
20260905224210 87 130 4.0 13.0 0.00 0.00 0.00 65 1012.2
20260905223244 88 143 3.0 14.0 0.00 0.00 0.00 65 1012.3
20260905222216 88 125 6.0 12.0 0.00 0.00 0.00 64 1012.4
20260905221242 88 139 7.0 14.0 0.00 0.00 0.00 67 1012.4
20260905215201 87 124 5.0 11.0 0.00 0.00 0.00 66 1012.6
20260905214225 87 132 4.0 14.0 0.00 0.00 0.00 65 1012.9
20260905213214 87 102 2.0 11.0 0.00 0.00 0.00 67 1013.0
20260905211159 87 139 5.0 15.0 0.00 0.00 0.00 69 1013.4
20260905210238 88 123 6.0 15.0 0.00 0.00 0.00 65 1013.5
20260905205213 87 133 4.0 17.0 0.00 0.00 0.00 68 1013.9
20260905202223 86 115 4.0 17.0 0.00 0.00 0.00 70 1014.1
20260905201212 86 98 5.0 11.0 0.00 0.00 0.00 69 1014.2